Year,Month,Day,Hour,Minute,Value (Times are PST for temperature in C)
2009,04,05,00,00,5.40
2009,04,05,00,01,5.40
2009,04,05,00,02,5.40
2009,04,05,00,03,5.40
2009,04,05,00,04,5.40
2009,04,05,00,05,5.40
2009,04,05,00,06,5.30
2009,04,05,00,07,5.30
2009,04,05,00,08,5.30
2009,04,05,00,09,5.30
2009,04,05,00,10,5.30
2009,04,05,00,11,5.30
2009,04,05,00,12,5.30
2009,04,05,00,13,5.30
2009,04,05,00,14,5.30
2009,04,05,00,15,5.30
2009,04,05,00,16,5.30
2009,04,05,00,17,5.40
2009,04,05,00,18,5.40
2009,04,05,00,19,5.40
2009,04,05,00,20,5.50
2009,04,05,00,21,5.50
2009,04,05,00,22,5.50
2009,04,05,00,23,5.50
2009,04,05,00,24,5.50
2009,04,05,00,25,5.40
2009,04,05,00,26,5.40
2009,04,05,00,27,5.40
2009,04,05,00,28,5.40
2009,04,05,00,29,5.40
2009,04,05,00,30,5.40
2009,04,05,00,31,5.30
2009,04,05,00,32,5.30
2009,04,05,00,33,5.30
2009,04,05,00,34,5.30
2009,04,05,00,35,5.30
2009,04,05,00,36,5.30
2009,04,05,00,37,5.30
2009,04,05,00,38,5.30
2009,04,05,00,39,5.30
2009,04,05,00,40,5.30
2009,04,05,00,41,5.30
2009,04,05,00,42,5.30
2009,04,05,00,43,5.30
2009,04,05,00,44,5.30
2009,04,05,00,45,5.30
2009,04,05,00,46,5.20
2009,04,05,00,47,5.20
2009,04,05,00,48,5.20
2009,04,05,00,49,5.20
2009,04,05,00,50,5.20
2009,04,05,00,51,5.20
2009,04,05,00,52,5.20
2009,04,05,00,53,5.20
2009,04,05,00,54,5.20
2009,04,05,00,55,5.10
2009,04,05,00,56,5.10
2009,04,05,00,57,5.10
2009,04,05,00,58,5.00
2009,04,05,00,59,5.00
2009,04,05,01,00,5.00
2009,04,05,01,01,4.90
2009,04,05,01,02,4.90
2009,04,05,01,03,4.90
2009,04,05,01,04,4.90
2009,04,05,01,05,4.80
2009,04,05,01,06,4.80
2009,04,05,01,07,4.80
2009,04,05,01,08,4.80
2009,04,05,01,09,4.80
2009,04,05,01,10,4.80
2009,04,05,01,11,4.80
2009,04,05,01,12,4.80
2009,04,05,01,13,4.80
2009,04,05,01,14,4.80
2009,04,05,01,15,4.90
2009,04,05,01,16,5.00
2009,04,05,01,17,5.00
2009,04,05,01,18,5.10
2009,04,05,01,19,5.10
2009,04,05,01,20,5.20
2009,04,05,01,21,5.20
2009,04,05,01,22,5.30
2009,04,05,01,23,5.30
2009,04,05,01,24,5.30
2009,04,05,01,25,5.30
2009,04,05,01,26,5.40
2009,04,05,01,27,5.40
2009,04,05,01,28,5.40
2009,04,05,01,29,5.50
2009,04,05,01,30,5.50
2009,04,05,01,31,5.60
2009,04,05,01,32,5.60
2009,04,05,01,33,5.60
2009,04,05,01,34,5.60
2009,04,05,01,35,5.60
2009,04,05,01,36,5.60
2009,04,05,01,37,5.60
2009,04,05,01,38,5.60
2009,04,05,01,39,5.60
2009,04,05,01,40,5.60
2009,04,05,01,41,5.60
2009,04,05,01,42,5.60
2009,04,05,01,43,5.60
2009,04,05,01,44,5.60
2009,04,05,01,45,5.60
2009,04,05,01,46,5.60
2009,04,05,01,47,5.60
2009,04,05,01,48,5.60
2009,04,05,01,49,5.60
2009,04,05,01,50,5.60
2009,04,05,01,51,5.60
2009,04,05,01,52,5.60
2009,04,05,01,53,5.60
2009,04,05,01,54,5.60
2009,04,05,01,55,5.60
2009,04,05,01,56,5.60
2009,04,05,01,57,5.50
2009,04,05,01,58,5.50
2009,04,05,01,59,5.50
2009,04,05,02,00,5.50
2009,04,05,02,01,5.50
2009,04,05,02,02,5.50
2009,04,05,02,03,5.40
2009,04,05,02,04,5.40
2009,04,05,02,05,5.40
2009,04,05,02,06,5.40
2009,04,05,02,07,5.40
2009,04,05,02,08,5.40
2009,04,05,02,09,5.30
2009,04,05,02,10,5.30
2009,04,05,02,11,5.30
2009,04,05,02,12,5.30
2009,04,05,02,13,5.30
2009,04,05,02,14,5.30
2009,04,05,02,15,5.30
2009,04,05,02,16,5.20
2009,04,05,02,17,5.20
2009,04,05,02,18,5.10
2009,04,05,02,19,5.10
2009,04,05,02,20,5.00
2009,04,05,02,21,4.90
2009,04,05,02,22,4.90
2009,04,05,02,23,4.80
2009,04,05,02,24,4.80
2009,04,05,02,25,4.70
2009,04,05,02,26,4.70
2009,04,05,02,27,4.70
2009,04,05,02,28,4.60
2009,04,05,02,29,4.60
2009,04,05,02,30,4.60
2009,04,05,02,31,4.60
2009,04,05,02,32,4.60
2009,04,05,02,33,4.50
2009,04,05,02,34,4.50
2009,04,05,02,35,4.50
2009,04,05,02,36,4.50
2009,04,05,02,37,4.50
2009,04,05,02,38,4.50
2009,04,05,02,39,4.50
2009,04,05,02,40,4.50
2009,04,05,02,41,4.40
2009,04,05,02,42,4.40
2009,04,05,02,43,4.40
2009,04,05,02,44,4.40
2009,04,05,02,45,4.40
2009,04,05,02,46,4.30
2009,04,05,02,47,4.30
2009,04,05,02,48,4.30
2009,04,05,02,49,4.30
2009,04,05,02,50,4.30
2009,04,05,02,51,4.40
2009,04,05,02,52,4.40
2009,04,05,02,53,4.40
2009,04,05,02,54,4.40
2009,04,05,02,55,4.40
2009,04,05,02,56,4.30
2009,04,05,02,57,4.30
2009,04,05,02,58,4.30
2009,04,05,02,59,4.30
2009,04,05,03,00,4.30
2009,04,05,03,01,4.30
2009,04,05,03,02,4.30
2009,04,05,03,03,4.30
2009,04,05,03,04,4.30
2009,04,05,03,05,4.30
2009,04,05,03,06,4.30
2009,04,05,03,07,4.30
2009,04,05,03,08,4.20
2009,04,05,03,09,4.20
2009,04,05,03,10,4.20
2009,04,05,03,11,4.20
2009,04,05,03,12,4.20
2009,04,05,03,13,4.20
2009,04,05,03,14,4.20
2009,04,05,03,15,4.20
2009,04,05,03,16,4.20
2009,04,05,03,17,4.20
2009,04,05,03,18,4.10
2009,04,05,03,19,4.10
2009,04,05,03,20,4.10
2009,04,05,03,21,4.10
2009,04,05,03,22,4.00
2009,04,05,03,23,4.00
2009,04,05,03,24,3.90
2009,04,05,03,25,3.90
2009,04,05,03,26,3.90
2009,04,05,03,27,3.90
2009,04,05,03,28,3.90
2009,04,05,03,29,3.90
2009,04,05,03,30,3.90
2009,04,05,03,31,3.90
2009,04,05,03,32,3.90
2009,04,05,03,33,3.90
2009,04,05,03,34,3.90
2009,04,05,03,35,3.80
2009,04,05,03,36,3.80
2009,04,05,03,37,3.80
2009,04,05,03,38,3.80
2009,04,05,03,39,3.80
2009,04,05,03,40,3.80
2009,04,05,03,41,3.80
2009,04,05,03,42,3.80
2009,04,05,03,43,3.80
2009,04,05,03,44,3.80
2009,04,05,03,45,3.80
2009,04,05,03,46,3.80
2009,04,05,03,47,3.80
2009,04,05,03,48,3.80
2009,04,05,03,49,3.80
2009,04,05,03,50,3.80
2009,04,05,03,51,3.80
2009,04,05,03,52,3.80
2009,04,05,03,53,3.80
2009,04,05,03,54,3.80
2009,04,05,03,55,3.80
2009,04,05,03,56,3.80
2009,04,05,03,57,3.80
2009,04,05,03,58,3.70
2009,04,05,03,59,3.70
2009,04,05,04,00,3.70
2009,04,05,04,01,3.70
2009,04,05,04,02,3.70
2009,04,05,04,03,3.70
2009,04,05,04,04,3.70
2009,04,05,04,05,3.70
2009,04,05,04,06,3.70
2009,04,05,04,07,3.60
2009,04,05,04,08,3.60
2009,04,05,04,09,3.60
2009,04,05,04,10,3.60
2009,04,05,04,11,3.60
2009,04,05,04,12,3.60
2009,04,05,04,13,3.60
2009,04,05,04,14,3.60
2009,04,05,04,15,3.60
2009,04,05,04,16,3.60
2009,04,05,04,17,3.60
2009,04,05,04,18,3.60
2009,04,05,04,19,3.60
2009,04,05,04,20,3.60
2009,04,05,04,21,3.60
2009,04,05,04,22,3.60
2009,04,05,04,23,3.60
2009,04,05,04,24,3.60
2009,04,05,04,25,3.60
2009,04,05,04,26,3.60
2009,04,05,04,27,3.60
2009,04,05,04,28,3.60
2009,04,05,04,29,3.60
2009,04,05,04,30,3.60
2009,04,05,04,31,3.60
2009,04,05,04,32,3.60
2009,04,05,04,33,3.60
2009,04,05,04,34,3.50
2009,04,05,04,35,3.50
2009,04,05,04,36,3.50
2009,04,05,04,37,3.50
2009,04,05,04,38,3.50
2009,04,05,04,39,3.40
2009,04,05,04,40,3.40
2009,04,05,04,41,3.40
2009,04,05,04,42,3.40
2009,04,05,04,43,3.40
2009,04,05,04,44,3.40
2009,04,05,04,45,3.40
2009,04,05,04,46,3.40
2009,04,05,04,47,3.40
2009,04,05,04,48,3.40
2009,04,05,04,49,3.40
2009,04,05,04,50,3.40
2009,04,05,04,51,3.40
2009,04,05,04,52,3.40
2009,04,05,04,53,3.40
2009,04,05,04,54,3.30
2009,04,05,04,55,3.30
2009,04,05,04,56,3.30
2009,04,05,04,57,3.30
2009,04,05,04,58,3.30
2009,04,05,04,59,3.30
2009,04,05,05,00,3.30
2009,04,05,05,01,3.30
2009,04,05,05,02,3.30
2009,04,05,05,03,3.30
2009,04,05,05,04,3.30
2009,04,05,05,05,3.30
2009,04,05,05,06,3.30
2009,04,05,05,07,3.30
2009,04,05,05,08,3.20
2009,04,05,05,09,3.20
2009,04,05,05,10,3.20
2009,04,05,05,11,3.20
2009,04,05,05,12,3.20
2009,04,05,05,13,3.20
2009,04,05,05,14,3.20
2009,04,05,05,15,3.20
2009,04,05,05,16,3.20
2009,04,05,05,17,3.20
2009,04,05,05,18,3.20
2009,04,05,05,19,3.20
2009,04,05,05,20,3.20
2009,04,05,05,21,3.20
2009,04,05,05,22,3.20
2009,04,05,05,23,3.20
2009,04,05,05,24,3.20
2009,04,05,05,25,3.20
2009,04,05,05,26,3.10
2009,04,05,05,27,3.10
2009,04,05,05,28,3.10
2009,04,05,05,29,3.10
2009,04,05,05,30,3.10
2009,04,05,05,31,3.10
2009,04,05,05,32,3.10
2009,04,05,05,33,3.10
2009,04,05,05,34,3.10
2009,04,05,05,35,3.10
2009,04,05,05,36,3.10
2009,04,05,05,37,3.10
2009,04,05,05,38,3.10
2009,04,05,05,39,3.10
2009,04,05,05,40,3.00
2009,04,05,05,41,3.00
2009,04,05,05,42,3.10
2009,04,05,05,43,3.10
2009,04,05,05,44,3.10
2009,04,05,05,45,3.10
2009,04,05,05,46,3.10
2009,04,05,05,47,3.10
2009,04,05,05,48,3.10
2009,04,05,05,49,3.10
2009,04,05,05,50,3.10
2009,04,05,05,51,3.00
2009,04,05,05,52,3.10
2009,04,05,05,53,3.10
2009,04,05,05,54,3.10
2009,04,05,05,55,3.10
2009,04,05,05,56,3.20
2009,04,05,05,57,3.20
2009,04,05,05,58,3.20
2009,04,05,05,59,3.20
2009,04,05,06,00,3.20
2009,04,05,06,01,3.20
2009,04,05,06,02,3.20
2009,04,05,06,03,3.20
2009,04,05,06,04,3.20
2009,04,05,06,05,3.20
2009,04,05,06,06,3.10
2009,04,05,06,07,3.10
2009,04,05,06,08,3.10
2009,04,05,06,09,3.10
2009,04,05,06,10,3.00
2009,04,05,06,11,3.00
2009,04,05,06,12,3.00
2009,04,05,06,13,3.00
2009,04,05,06,14,2.90
2009,04,05,06,15,2.90
2009,04,05,06,16,2.90
2009,04,05,06,17,2.90
2009,04,05,06,18,2.90
2009,04,05,06,19,2.90
2009,04,05,06,20,2.90
2009,04,05,06,21,2.90
2009,04,05,06,22,2.90
2009,04,05,06,23,2.90
2009,04,05,06,24,2.90
2009,04,05,06,25,3.00
2009,04,05,06,26,2.90
2009,04,05,06,27,2.90
2009,04,05,06,28,2.90
2009,04,05,06,29,2.90
2009,04,05,06,30,2.90
2009,04,05,06,31,2.90
2009,04,05,06,32,2.90
2009,04,05,06,33,2.90
2009,04,05,06,34,2.90
2009,04,05,06,35,2.90
2009,04,05,06,36,2.90
2009,04,05,06,37,2.90
2009,04,05,06,38,2.90
2009,04,05,06,39,2.90
2009,04,05,06,40,2.80
2009,04,05,06,41,2.90
2009,04,05,06,42,2.90
2009,04,05,06,43,2.90
2009,04,05,06,44,2.90
2009,04,05,06,45,2.90
2009,04,05,06,46,2.90
2009,04,05,06,47,2.90
2009,04,05,06,48,2.90
2009,04,05,06,49,2.90
2009,04,05,06,50,2.90
2009,04,05,06,51,2.90
2009,04,05,06,52,2.90
2009,04,05,06,53,2.90
2009,04,05,06,54,2.90
2009,04,05,06,55,2.90
2009,04,05,06,56,2.90
2009,04,05,06,57,2.90
2009,04,05,06,58,2.90
2009,04,05,06,59,2.90
2009,04,05,07,00,3.00
2009,04,05,07,01,3.00
2009,04,05,07,02,3.00
2009,04,05,07,03,3.00
2009,04,05,07,04,3.10
2009,04,05,07,05,3.10
2009,04,05,07,06,3.10
2009,04,05,07,07,3.20
2009,04,05,07,08,3.20
2009,04,05,07,09,3.30
2009,04,05,07,10,3.30
2009,04,05,07,11,3.30
2009,04,05,07,12,3.30
2009,04,05,07,13,3.30
2009,04,05,07,14,3.40
2009,04,05,07,15,3.40
2009,04,05,07,16,3.40
2009,04,05,07,17,3.40
2009,04,05,07,18,3.40
2009,04,05,07,19,3.40
2009,04,05,07,20,3.40
2009,04,05,07,21,3.40
2009,04,05,07,22,3.40
2009,04,05,07,23,3.40
2009,04,05,07,24,3.40
2009,04,05,07,25,3.40
2009,04,05,07,26,3.40
2009,04,05,07,27,3.40
2009,04,05,07,28,3.40
2009,04,05,07,29,3.40
2009,04,05,07,30,3.40
2009,04,05,07,31,3.40
2009,04,05,07,32,3.40
2009,04,05,07,33,3.40
2009,04,05,07,34,3.50
2009,04,05,07,35,3.50
2009,04,05,07,36,3.50
2009,04,05,07,37,3.50
2009,04,05,07,38,3.50
2009,04,05,07,39,3.50
2009,04,05,07,40,3.60
2009,04,05,07,41,3.60
2009,04,05,07,42,3.60
2009,04,05,07,43,3.60
2009,04,05,07,44,3.60
2009,04,05,07,45,3.60
2009,04,05,07,46,3.60
2009,04,05,07,47,3.70
2009,04,05,07,48,3.70
2009,04,05,07,49,3.70
2009,04,05,07,50,3.70
2009,04,05,07,51,3.70
2009,04,05,07,52,3.80
2009,04,05,07,53,3.80
2009,04,05,07,54,3.80
2009,04,05,07,55,3.90
2009,04,05,07,56,3.90
2009,04,05,07,57,3.90
2009,04,05,07,58,4.00
2009,04,05,07,59,4.00
2009,04,05,08,00,4.00
2009,04,05,08,01,4.10
2009,04,05,08,02,4.10
2009,04,05,08,03,4.10
2009,04,05,08,04,4.10
2009,04,05,08,05,4.10
2009,04,05,08,06,4.20
2009,04,05,08,07,4.20
2009,04,05,08,08,4.20
2009,04,05,08,09,4.20
2009,04,05,08,10,4.20
2009,04,05,08,11,4.30
2009,04,05,08,12,4.30
2009,04,05,08,13,4.30
2009,04,05,08,14,4.30
2009,04,05,08,15,4.40
2009,04,05,08,16,4.40
2009,04,05,08,17,4.50
2009,04,05,08,18,4.50
2009,04,05,08,19,4.60
2009,04,05,08,20,4.60
2009,04,05,08,21,4.60
2009,04,05,08,22,4.70
2009,04,05,08,23,4.70
2009,04,05,08,24,4.70
2009,04,05,08,25,4.80
2009,04,05,08,26,4.80
2009,04,05,08,27,4.90
2009,04,05,08,28,4.90
2009,04,05,08,29,5.00
2009,04,05,08,30,5.00
2009,04,05,08,31,5.10
2009,04,05,08,32,5.10
2009,04,05,08,33,5.10
2009,04,05,08,34,5.20
2009,04,05,08,35,5.30
2009,04,05,08,36,5.30
2009,04,05,08,37,5.40
2009,04,05,08,38,5.40
2009,04,05,08,39,5.50
2009,04,05,08,40,5.60
2009,04,05,08,41,5.70
2009,04,05,08,42,5.70
2009,04,05,08,43,5.80
2009,04,05,08,44,5.90
2009,04,05,08,45,6.00
2009,04,05,08,46,6.00
2009,04,05,08,47,6.10
2009,04,05,08,48,6.20
2009,04,05,08,49,6.30
2009,04,05,08,50,6.40
2009,04,05,08,51,6.50
2009,04,05,08,52,6.50
2009,04,05,08,53,6.60
2009,04,05,08,54,6.60
2009,04,05,08,55,6.70
2009,04,05,08,56,6.70
2009,04,05,08,57,6.70
2009,04,05,08,58,6.80
2009,04,05,08,59,6.80
2009,04,05,09,00,6.80
2009,04,05,09,01,6.90
2009,04,05,09,02,6.90
2009,04,05,09,03,6.90
2009,04,05,09,04,6.90
2009,04,05,09,05,7.00
2009,04,05,09,06,7.00
2009,04,05,09,07,7.00
2009,04,05,09,08,7.10
2009,04,05,09,09,7.10
2009,04,05,09,10,7.10
2009,04,05,09,11,7.20
2009,04,05,09,12,7.20
2009,04,05,09,13,7.30
2009,04,05,09,14,7.40
2009,04,05,09,15,7.50
2009,04,05,09,16,7.60
2009,04,05,09,17,7.70
2009,04,05,09,18,7.80
2009,04,05,09,19,7.90
2009,04,05,09,20,8.00
2009,04,05,09,21,8.10
2009,04,05,09,22,8.20
2009,04,05,09,23,8.30
2009,04,05,09,24,8.30
2009,04,05,09,25,8.40
2009,04,05,09,26,8.50
2009,04,05,09,27,8.60
2009,04,05,09,28,8.70
2009,04,05,09,29,8.80
2009,04,05,09,30,8.90
2009,04,05,09,31,9.00
2009,04,05,09,32,9.10
2009,04,05,09,33,9.10
2009,04,05,09,34,9.20
2009,04,05,09,35,9.20
2009,04,05,09,36,9.30
2009,04,05,09,37,9.40
2009,04,05,09,38,9.50
2009,04,05,09,39,9.50
2009,04,05,09,40,9.60
2009,04,05,09,41,9.60
2009,04,05,09,42,9.60
2009,04,05,09,43,9.70
2009,04,05,09,44,9.70
2009,04,05,09,45,9.80
2009,04,05,09,46,9.80
2009,04,05,09,47,9.80
2009,04,05,09,48,9.90
2009,04,05,09,49,9.90
2009,04,05,09,50,9.90
2009,04,05,09,51,10.00
2009,04,05,09,52,10.00
2009,04,05,09,53,9.90
2009,04,05,09,54,9.90
2009,04,05,09,55,9.90
2009,04,05,09,56,10.00
2009,04,05,09,57,10.00
2009,04,05,09,58,10.10
2009,04,05,09,59,10.10
2009,04,05,10,00,10.20
2009,04,05,10,01,10.30
2009,04,05,10,02,10.30
2009,04,05,10,03,10.30
2009,04,05,10,04,10.30
2009,04,05,10,05,10.30
2009,04,05,10,06,10.40
2009,04,05,10,07,10.40
2009,04,05,10,08,10.50
2009,04,05,10,09,10.60
2009,04,05,10,10,10.60
2009,04,05,10,11,10.70
2009,04,05,10,12,10.70
2009,04,05,10,13,10.70
2009,04,05,10,14,10.60
2009,04,05,10,15,10.60
2009,04,05,10,16,10.60
2009,04,05,10,17,10.60
2009,04,05,10,18,10.60
2009,04,05,10,19,10.60
2009,04,05,10,20,10.60
2009,04,05,10,21,10.60
2009,04,05,10,22,10.60
2009,04,05,10,23,10.70
2009,04,05,10,24,10.80
2009,04,05,10,25,10.80
2009,04,05,10,26,10.90
2009,04,05,10,27,10.90
2009,04,05,10,28,10.90
2009,04,05,10,29,10.80
2009,04,05,10,30,10.80
2009,04,05,10,31,10.80
2009,04,05,10,32,10.80
2009,04,05,10,33,10.80
2009,04,05,10,34,10.80
2009,04,05,10,35,10.80
2009,04,05,10,36,10.70
2009,04,05,10,37,10.60
2009,04,05,10,38,10.70
2009,04,05,10,39,10.70
2009,04,05,10,40,10.70
2009,04,05,10,41,10.70
2009,04,05,10,42,10.80
2009,04,05,10,43,10.90
2009,04,05,10,44,11.00
2009,04,05,10,45,11.10
2009,04,05,10,46,11.20
2009,04,05,10,47,11.30
2009,04,05,10,48,11.40
2009,04,05,10,49,11.50
2009,04,05,10,50,11.50
2009,04,05,10,51,11.40
2009,04,05,10,52,11.40
2009,04,05,10,53,11.40
2009,04,05,10,54,11.40
2009,04,05,10,55,11.50
2009,04,05,10,56,11.50
2009,04,05,10,57,11.50
2009,04,05,10,58,11.40
2009,04,05,10,59,11.40
2009,04,05,11,00,11.50
2009,04,05,11,01,11.60
2009,04,05,11,02,11.50
2009,04,05,11,03,11.50
2009,04,05,11,04,11.50
2009,04,05,11,05,11.50
2009,04,05,11,06,11.50
2009,04,05,11,07,11.50
2009,04,05,11,08,11.40
2009,04,05,11,09,11.40
2009,04,05,11,10,11.40
2009,04,05,11,11,11.40
2009,04,05,11,12,11.50
2009,04,05,11,13,11.50
2009,04,05,11,14,11.60
2009,04,05,11,15,11.60
2009,04,05,11,16,11.50
2009,04,05,11,17,11.50
2009,04,05,11,18,11.50
2009,04,05,11,19,11.60
2009,04,05,11,20,11.60
2009,04,05,11,21,11.70
2009,04,05,11,22,11.70
2009,04,05,11,23,11.60
2009,04,05,11,24,11.50
2009,04,05,11,25,11.50
2009,04,05,11,26,11.50
2009,04,05,11,27,11.50
2009,04,05,11,28,11.50
2009,04,05,11,29,11.50
2009,04,05,11,30,11.50
2009,04,05,11,31,11.50
2009,04,05,11,32,11.40
2009,04,05,11,33,11.50
2009,04,05,11,34,11.50
2009,04,05,11,35,11.60
2009,04,05,11,36,11.60
2009,04,05,11,37,11.40
2009,04,05,11,38,11.40
2009,04,05,11,39,11.40
2009,04,05,11,40,11.40
2009,04,05,11,41,11.40
2009,04,05,11,42,11.40
2009,04,05,11,43,11.50
2009,04,05,11,44,11.50
2009,04,05,11,45,11.60
2009,04,05,11,46,11.60
2009,04,05,11,47,11.60
2009,04,05,11,48,11.60
2009,04,05,11,49,11.70
2009,04,05,11,50,11.80
2009,04,05,11,51,11.80
2009,04,05,11,52,11.90
2009,04,05,11,53,12.00
2009,04,05,11,54,12.00
2009,04,05,11,55,11.90
2009,04,05,11,56,11.80
2009,04,05,11,57,11.80
2009,04,05,11,58,11.80
2009,04,05,11,59,11.90
2009,04,05,12,00,11.90
2009,04,05,12,01,11.90
2009,04,05,12,02,12.00
2009,04,05,12,03,12.10
2009,04,05,12,04,12.20
2009,04,05,12,05,12.20
2009,04,05,12,06,12.20
2009,04,05,12,07,12.20
2009,04,05,12,08,12.20
2009,04,05,12,09,12.30
2009,04,05,12,10,12.20
2009,04,05,12,11,12.30
2009,04,05,12,12,12.30
2009,04,05,12,13,12.40
2009,04,05,12,14,12.40
2009,04,05,12,15,12.50
2009,04,05,12,16,12.60
2009,04,05,12,17,12.60
2009,04,05,12,18,12.50
2009,04,05,12,19,12.50
2009,04,05,12,20,12.50
2009,04,05,12,21,12.60
2009,04,05,12,22,12.60
2009,04,05,12,23,12.70
2009,04,05,12,24,12.70
2009,04,05,12,25,12.80
2009,04,05,12,26,12.80
2009,04,05,12,27,12.80
2009,04,05,12,28,12.80
2009,04,05,12,29,12.80
2009,04,05,12,30,12.80
2009,04,05,12,31,12.80
2009,04,05,12,32,12.90
2009,04,05,12,33,12.90
2009,04,05,12,34,12.90
2009,04,05,12,35,12.90
2009,04,05,12,36,13.00
2009,04,05,12,37,13.10
2009,04,05,12,38,13.10
2009,04,05,12,39,13.10
2009,04,05,12,40,13.10
2009,04,05,12,41,13.10
2009,04,05,12,42,13.10
2009,04,05,12,43,13.20
2009,04,05,12,44,13.30
2009,04,05,12,45,13.30
2009,04,05,12,46,13.30
2009,04,05,12,47,13.40
2009,04,05,12,48,13.60
2009,04,05,12,49,13.60
2009,04,05,12,50,13.70
2009,04,05,12,51,13.80
2009,04,05,12,52,13.90
2009,04,05,12,53,14.00
2009,04,05,12,54,14.10
2009,04,05,12,55,14.10
2009,04,05,12,56,14.10
2009,04,05,12,57,14.00
2009,04,05,12,58,14.00
2009,04,05,12,59,14.00
2009,04,05,13,00,14.10
2009,04,05,13,01,14.10
2009,04,05,13,02,14.10
2009,04,05,13,03,14.10
2009,04,05,13,04,14.10
2009,04,05,13,05,14.20
2009,04,05,13,06,14.10
2009,04,05,13,07,14.10
2009,04,05,13,08,14.20
2009,04,05,13,09,14.20
2009,04,05,13,10,14.20
2009,04,05,13,11,14.20
2009,04,05,13,12,14.20
2009,04,05,13,13,14.30
2009,04,05,13,14,14.30
2009,04,05,13,15,14.20
2009,04,05,13,16,14.20
2009,04,05,13,17,14.20
2009,04,05,13,18,14.10
2009,04,05,13,19,14.00
2009,04,05,13,20,13.90
2009,04,05,13,21,13.80
2009,04,05,13,22,13.70
2009,04,05,13,23,13.70
2009,04,05,13,24,13.70
2009,04,05,13,25,13.70
2009,04,05,13,26,13.70
2009,04,05,13,27,13.80
2009,04,05,13,28,13.80
2009,04,05,13,29,13.80
2009,04,05,13,30,13.90
2009,04,05,13,31,13.90
2009,04,05,13,32,13.90
2009,04,05,13,33,14.00
2009,04,05,13,34,14.10
2009,04,05,13,35,14.20
2009,04,05,13,36,14.30
2009,04,05,13,37,14.30
2009,04,05,13,38,14.40
2009,04,05,13,39,14.40
2009,04,05,13,40,14.50
2009,04,05,13,41,14.50
2009,04,05,13,42,14.50
2009,04,05,13,43,14.50
2009,04,05,13,44,14.60
2009,04,05,13,45,14.70
2009,04,05,13,46,14.70
2009,04,05,13,47,14.70
2009,04,05,13,48,14.70
2009,04,05,13,49,14.70
2009,04,05,13,50,14.60
2009,04,05,13,51,14.60
2009,04,05,13,52,14.50
2009,04,05,13,53,14.50
2009,04,05,13,54,14.40
2009,04,05,13,55,14.40
2009,04,05,13,56,14.50
2009,04,05,13,57,14.50
2009,04,05,13,58,14.60
2009,04,05,13,59,14.70
2009,04,05,14,00,14.80
2009,04,05,14,01,14.80
2009,04,05,14,02,14.70
2009,04,05,14,03,14.70
2009,04,05,14,04,14.70
2009,04,05,14,05,14.70
2009,04,05,14,06,14.70
2009,04,05,14,07,14.80
2009,04,05,14,08,14.80
2009,04,05,14,09,14.90
2009,04,05,14,10,15.00
2009,04,05,14,11,15.00
2009,04,05,14,12,15.00
2009,04,05,14,13,15.00
2009,04,05,14,14,15.00
2009,04,05,14,15,14.90
2009,04,05,14,16,14.80
2009,04,05,14,17,14.80
2009,04,05,14,18,14.80
2009,04,05,14,19,14.80
2009,04,05,14,20,14.70
2009,04,05,14,21,14.70
2009,04,05,14,22,14.70
2009,04,05,14,23,14.70
2009,04,05,14,24,14.70
2009,04,05,14,25,14.70
2009,04,05,14,26,14.80
2009,04,05,14,27,14.80
2009,04,05,14,28,14.90
2009,04,05,14,29,15.00
2009,04,05,14,30,15.00
2009,04,05,14,31,15.00
2009,04,05,14,32,15.00
2009,04,05,14,33,15.00
2009,04,05,14,34,15.00
2009,04,05,14,35,15.00
2009,04,05,14,36,15.00
2009,04,05,14,37,15.00
2009,04,05,14,38,15.10
2009,04,05,14,39,15.20
2009,04,05,14,40,15.30
2009,04,05,14,41,15.40
2009,04,05,14,42,15.50
2009,04,05,14,43,15.60
2009,04,05,14,44,15.70
2009,04,05,14,45,15.80
2009,04,05,14,46,16.00
2009,04,05,14,47,16.00
2009,04,05,14,48,16.10
2009,04,05,14,49,16.00
2009,04,05,14,50,15.90
2009,04,05,14,51,15.90
2009,04,05,14,52,15.70
2009,04,05,14,53,15.70
2009,04,05,14,54,15.70
2009,04,05,14,55,15.70
2009,04,05,14,56,15.70
2009,04,05,14,57,15.70
2009,04,05,14,58,15.80
2009,04,05,14,59,15.90
2009,04,05,15,00,15.90
2009,04,05,15,01,16.00
2009,04,05,15,02,16.10
2009,04,05,15,03,16.20
2009,04,05,15,04,16.30
2009,04,05,15,05,16.40
2009,04,05,15,06,16.40
2009,04,05,15,07,16.50
2009,04,05,15,08,16.40
2009,04,05,15,09,16.40
2009,04,05,15,10,16.40
2009,04,05,15,11,16.40
2009,04,05,15,12,16.40
2009,04,05,15,13,16.40
2009,04,05,15,14,16.40
2009,04,05,15,15,16.40
2009,04,05,15,16,16.40
2009,04,05,15,17,16.20
2009,04,05,15,18,16.20
2009,04,05,15,19,16.20
2009,04,05,15,20,16.10
2009,04,05,15,21,16.10
2009,04,05,15,22,16.10
2009,04,05,15,23,16.10
2009,04,05,15,24,16.10
2009,04,05,15,25,16.00
2009,04,05,15,26,15.90
2009,04,05,15,27,15.90
2009,04,05,15,28,15.90
2009,04,05,15,29,15.90
2009,04,05,15,30,15.90
2009,04,05,15,31,15.90
2009,04,05,15,32,15.90
2009,04,05,15,33,15.90
2009,04,05,15,34,15.90
2009,04,05,15,35,15.90
2009,04,05,15,36,15.90
2009,04,05,15,37,16.00
2009,04,05,15,38,16.00
2009,04,05,15,39,16.00
2009,04,05,15,40,16.10
2009,04,05,15,41,16.10
2009,04,05,15,42,16.10
2009,04,05,15,43,16.10
2009,04,05,15,44,16.10
2009,04,05,15,45,16.10
2009,04,05,15,46,16.10
2009,04,05,15,47,16.00
2009,04,05,15,48,16.10
2009,04,05,15,49,16.00
2009,04,05,15,50,16.00
2009,04,05,15,51,16.10
2009,04,05,15,52,16.00
2009,04,05,15,53,16.00
2009,04,05,15,54,16.00
2009,04,05,15,55,16.00
2009,04,05,15,56,16.10
2009,04,05,15,57,16.10
2009,04,05,15,58,16.10
2009,04,05,15,59,16.20
2009,04,05,16,00,16.30
2009,04,05,16,01,16.30
2009,04,05,16,02,16.40
2009,04,05,16,03,16.50
2009,04,05,16,04,16.50
2009,04,05,16,05,16.60
2009,04,05,16,06,16.60
2009,04,05,16,07,16.60
2009,04,05,16,08,16.60
2009,04,05,16,09,16.60
2009,04,05,16,10,16.50
2009,04,05,16,11,16.50
2009,04,05,16,12,16.40
2009,04,05,16,13,16.40
2009,04,05,16,14,16.40
2009,04,05,16,15,16.40
2009,04,05,16,16,16.30
2009,04,05,16,17,16.30
2009,04,05,16,18,16.20
2009,04,05,16,19,16.20
2009,04,05,16,20,16.20
2009,04,05,16,21,16.20
2009,04,05,16,22,16.30
2009,04,05,16,23,16.30
2009,04,05,16,24,16.40
2009,04,05,16,25,16.50
2009,04,05,16,26,16.60
2009,04,05,16,27,16.60
2009,04,05,16,28,16.70
2009,04,05,16,29,16.70
2009,04,05,16,30,16.60
2009,04,05,16,31,16.50
2009,04,05,16,32,16.50
2009,04,05,16,33,16.40
2009,04,05,16,34,16.50
2009,04,05,16,35,16.50
2009,04,05,16,36,16.50
2009,04,05,16,37,16.60
2009,04,05,16,38,16.60
2009,04,05,16,39,16.60
2009,04,05,16,40,16.70
2009,04,05,16,41,16.70
2009,04,05,16,42,16.80
2009,04,05,16,43,16.80
2009,04,05,16,44,16.90
2009,04,05,16,45,17.00
2009,04,05,16,46,17.00
2009,04,05,16,47,17.10
2009,04,05,16,48,17.20
2009,04,05,16,49,17.20
2009,04,05,16,50,17.30
2009,04,05,16,51,17.30
2009,04,05,16,52,17.30
2009,04,05,16,53,17.30
2009,04,05,16,54,17.20
2009,04,05,16,55,17.20
2009,04,05,16,56,17.20
2009,04,05,16,57,17.10
2009,04,05,16,58,17.10
2009,04,05,16,59,17.00
2009,04,05,17,00,16.90
2009,04,05,17,01,16.90
2009,04,05,17,02,16.80
2009,04,05,17,03,16.70
2009,04,05,17,04,16.70
2009,04,05,17,05,16.60
2009,04,05,17,06,16.60
2009,04,05,17,07,16.50
2009,04,05,17,08,16.50
2009,04,05,17,09,16.50
2009,04,05,17,10,16.40
2009,04,05,17,11,16.30
2009,04,05,17,12,16.20
2009,04,05,17,13,16.20
2009,04,05,17,14,16.10
2009,04,05,17,15,16.10
2009,04,05,17,16,16.10
2009,04,05,17,17,16.10
2009,04,05,17,18,16.10
2009,04,05,17,19,16.10
2009,04,05,17,20,16.10
2009,04,05,17,21,16.10
2009,04,05,17,22,16.20
2009,04,05,17,23,16.20
2009,04,05,17,24,16.20
2009,04,05,17,25,16.10
2009,04,05,17,26,16.00
2009,04,05,17,27,16.00
2009,04,05,17,28,15.90
2009,04,05,17,29,15.80
2009,04,05,17,30,15.70
2009,04,05,17,31,15.70
2009,04,05,17,32,15.60
2009,04,05,17,33,15.60
2009,04,05,17,34,15.50
2009,04,05,17,35,15.40
2009,04,05,17,36,15.40
2009,04,05,17,37,15.30
2009,04,05,17,38,15.20
2009,04,05,17,39,15.20
2009,04,05,17,40,15.20
2009,04,05,17,41,15.10
2009,04,05,17,42,15.00
2009,04,05,17,43,15.00
2009,04,05,17,44,15.00
2009,04,05,17,45,15.00